| time (UTC) | temp F | wind direction | speed knots | gust knots | rain 1hr in | rain 24hr in | rain mn in | humidity % | barometer mb |
| 20260508004143 | 52 | 292 | 0.0 | 0.0 | 0.00 | 0.06 | 0.06 | 46 | 1006.2 |
| 20260508003639 | 53 | 279 | 0.0 | 0.0 | 0.00 | 0.06 | 0.06 | 47 | 1006.1 |
| 20260508003137 | 53 | 335 | 0.0 | 0.0 | 0.00 | 0.06 | 0.06 | 44 | 1005.9 |
| 20260508002633 | 53 | 276 | 0.9 | 1.7 | 0.00 | 0.06 | 0.06 | 44 | 1005.7 |
| 20260508002132 | 54 | 313 | 0.0 | 0.0 | 0.00 | 0.06 | 0.06 | 42 | 1005.8 |
| 20260508001626 | 54 | 340 | 1.7 | 2.6 | 0.00 | 0.06 | 0.06 | 43 | 1005.7 |
| 20260508001123 | 54 | 244 | 1.7 | 1.7 | 0.00 | 0.06 | 0.06 | 42 | 1005.6 |
| 20260508000618 | 54 | 302 | 1.7 | 1.7 | 0.00 | 0.06 | 0.06 | 43 | 1005.5 |
| 20260508000116 | 55 | 350 | 0.9 | 0.9 | 0.00 | 0.06 | 0.06 | 41 | 1005.4 |
| 20260507235613 | 55 | 29 | 0.0 | 0.0 | 0.00 | 0.06 | 0.06 | 44 | 1005.4 |
| 20260507235110 | 55 | 273 | 1.7 | 2.6 | 0.00 | 0.06 | 0.06 | 43 | 1005.6 |
| 20260507234606 | 55 | 315 | 0.0 | 0.0 | 0.00 | 0.06 | 0.06 | 43 | 1005.5 |
| 20260507234103 | 56 | 7 | 0.9 | 2.6 | 0.00 | 0.06 | 0.06 | 42 | 1005.4 |
| 20260507233600 | 56 | 347 | 4.3 | 6.1 | 0.00 | 0.06 | 0.06 | 41 | 1005.2 |
| 20260507233059 | 56 | 308 | 0.9 | 0.9 | 0.00 | 0.06 | 0.06 | 44 | 1005.3 |
| 20260507232554 | 57 | 15 | 0.9 | 0.9 | 0.00 | 0.06 | 0.06 | 41 | 1005.1 |
| 20260507232052 | 57 | 279 | 0.0 | 0.9 | 0.00 | 0.06 | 0.06 | 41 | 1005.2 |
| 20260507231548 | 58 | 308 | 1.7 | 2.6 | 0.00 | 0.06 | 0.06 | 40 | 1005.2 |
| 20260507231046 | 58 | 17 | 0.9 | 1.7 | 0.00 | 0.06 | 0.06 | 40 | 1005.1 |
| 20260507230542 | 59 | 288 | 0.9 | 1.7 | 0.00 | 0.06 | 0.06 | 40 | 1004.9 |
| 20260507230038 | 59 | 245 | 1.7 | 2.6 | 0.00 | 0.06 | 0.06 | 39 | 1004.9 |
| 20260507225533 | 58 | 309 | 1.7 | 2.6 | 0.00 | 0.06 | 0.06 | 40 | 1004.8 |
| 20260507225030 | 58 | 197 | 5.2 | 7.0 | 0.00 | 0.06 | 0.06 | 39 | 1004.7 |
| 20260507224526 | 59 | 294 | 1.7 | 2.6 | 0.00 | 0.06 | 0.06 | 39 | 1004.8 |
| 20260507224023 | 59 | 224 | 2.6 | 2.6 | 0.00 | 0.06 | 0.06 | 39 | 1004.5 |
| 20260507223519 | 59 | 321 | 4.3 | 6.1 | 0.00 | 0.06 | 0.06 | 38 | 1004.6 |
| 20260507223016 | 59 | 231 | 2.6 | 3.5 | 0.00 | 0.06 | 0.06 | 39 | 1004.5 |
| 20260507222513 | 60 | 255 | 1.7 | 1.7 | 0.00 | 0.06 | 0.06 | 38 | 1004.4 |
| 20260507222009 | 59 | 257 | 3.5 | 3.5 | 0.00 | 0.06 | 0.06 | 36 | 1004.5 |
| 20260507221506 | 59 | 277 | 1.7 | 1.7 | 0.00 | 0.06 | 0.06 | 40 | 1004.2 |
| 20260507221003 | 59 | 238 | 3.5 | 3.5 | 0.00 | 0.06 | 0.06 | 40 | 1004.3 |
| 20260507220500 | 60 | 239 | 1.7 | 1.7 | 0.00 | 0.06 | 0.06 | 37 | 1004.2 |
| 20260507215957 | 60 | 269 | 3.5 | 5.2 | 0.00 | 0.06 | 0.06 | 38 | 1004.3 |
| 20260507215453 | 60 | 226 | 4.3 | 5.2 | 0.00 | 0.06 | 0.06 | 36 | 1004.3 |
| 20260507214951 | 61 | 281 | 3.5 | 5.2 | 0.00 | 0.06 | 0.06 | 35 | 1004.2 |
| 20260507214448 | 62 | 281 | 2.6 | 5.2 | 0.00 | 0.06 | 0.06 | 34 | 1004.3 |
| 20260507213943 | 61 | 261 | 0.9 | 1.7 | 0.00 | 0.06 | 0.06 | 38 | 1004.2 |
| 20260507213440 | 62 | 272 | 0.9 | 0.9 | 0.00 | 0.06 | 0.06 | 39 | 1004.2 |
| 20260507212937 | 63 | 175 | 4.3 | 5.2 | 0.00 | 0.06 | 0.06 | 36 | 1004.1 |
| 20260507212427 | 62 | 304 | 2.6 | 3.5 | 0.00 | 0.06 | 0.06 | 35 | 1004.2 |
| 20260507211924 | 62 | 294 | 4.3 | 7.8 | 0.00 | 0.06 | 0.06 | 35 | 1004.3 |
| 20260507211421 | 62 | 44 | 3.5 | 3.5 | 0.00 | 0.06 | 0.06 | 36 | 1004.3 |
| 20260507210918 | 63 | 282 | 2.6 | 2.6 | 0.00 | 0.06 | 0.06 | 35 | 1004.0 |
| 20260507210415 | 62 | 268 | 0.0 | 0.0 | 0.00 | 0.06 | 0.06 | 38 | 1004.2 |
| 20260507205911 | 61 | 319 | 1.7 | 2.6 | 0.00 | 0.06 | 0.06 | 37 | 1004.3 |
| 20260507205409 | 60 | 302 | 1.7 | 2.6 | 0.00 | 0.06 | 0.06 | 36 | 1004.1 |
| 20260507204904 | 63 | 228 | 4.3 | 6.1 | 0.00 | 0.06 | 0.06 | 35 | 1003.9 |
| 20260507204401 | 62 | 277 | 0.9 | 1.7 | 0.00 | 0.06 | 0.06 | 37 | 1004.2 |
| 20260507203859 | 63 | 337 | 2.6 | 3.5 | 0.00 | 0.06 | 0.06 | 38 | 1004.0 |
| 20260507203357 | 62 | 285 | 1.7 | 3.5 | 0.00 | 0.06 | 0.06 | 36 | 1003.9 |
| 20260507202853 | 61 | 316 | 2.6 | 3.5 | 0.00 | 0.06 | 0.06 | 37 | 1004.2 |
| 20260507202349 | 61 | 211 | 3.5 | 3.5 | 0.00 | 0.06 | 0.06 | 37 | 1003.9 |
| 20260507201845 | 61 | 238 | 0.9 | 1.7 | 0.00 | 0.06 | 0.06 | 38 | 1003.8 |
| 20260507201341 | 62 | 24 | 5.2 | 6.1 | 0.00 | 0.06 | 0.06 | 37 | 1003.9 |
| 20260507200837 | 62 | 318 | 3.5 | 5.2 | 0.00 | 0.06 | 0.06 | 38 | 1004.1 |
| 20260507200333 | 62 | 250 | 1.7 | 3.5 | 0.00 | 0.06 | 0.06 | 39 | 1004.0 |
| 20260507195829 | 63 | 195 | 2.6 | 2.6 | 0.00 | 0.06 | 0.06 | 39 | 1004.1 |
| 20260507195327 | 63 | 305 | 1.7 | 2.6 | 0.00 | 0.06 | 0.06 | 38 | 1004.1 |
| 20260507194824 | 62 | 211 | 1.7 | 1.7 | 0.00 | 0.06 | 0.06 | 41 | 1004.0 |
| 20260507194320 | 60 | 242 | 4.3 | 5.2 | 0.00 | 0.06 | 0.06 | 40 | 1004.1 |
| 20260507193817 | 62 | 255 | 6.1 | 9.6 | 0.00 | 0.06 | 0.06 | 39 | 1004.3 |
| 20260507193314 | 62 | 16 | 2.6 | 5.2 | 0.00 | 0.06 | 0.06 | 41 | 1004.1 |
| 20260507192809 | 61 | 21 | 0.0 | 1.7 | 0.00 | 0.06 | 0.06 | 41 | 1004.3 |
| 20260507192307 | 59 | 266 | 0.9 | 1.7 | 0.00 | 0.06 | 0.06 | 45 | 1004.5 |
| 20260507191803 | 59 | 261 | 1.7 | 2.6 | 0.00 | 0.06 | 0.06 | 46 | 1004.4 |
| 20260507191259 | 59 | 289 | 3.5 | 3.5 | 0.00 | 0.06 | 0.06 | 43 | 1004.4 |
| 20260507190756 | 60 | 300 | 0.0 | 0.0 | 0.00 | 0.06 | 0.06 | 43 | 1004.4 |
| 20260507190255 | 63 | 184 | 2.6 | 3.5 | 0.00 | 0.06 | 0.06 | 41 | 1004.3 |
| 20260507185753 | 63 | 257 | 1.7 | 2.6 | 0.00 | 0.06 | 0.06 | 42 | 1004.2 |
| 20260507185249 | 62 | 229 | 3.5 | 5.2 | 0.00 | 0.06 | 0.06 | 43 | 1004.1 |
| 20260507184747 | 62 | 214 | 0.9 | 1.7 | 0.00 | 0.06 | 0.06 | 42 | 1004.2 |
| 20260507184245 | 62 | 321 | 3.5 | 5.2 | 0.00 | 0.06 | 0.06 | 41 | 1004.5 |
| 20260507183741 | 61 | 279 | 4.3 | 6.1 | 0.00 | 0.06 | 0.06 | 41 | 1004.4 |
| 20260507183238 | 62 | 192 | 2.6 | 2.6 | 0.00 | 0.06 | 0.06 | 40 | 1004.7 |
| 20260507182736 | 62 | 207 | 3.5 | 6.1 | 0.00 | 0.06 | 0.06 | 39 | 1004.5 |
| 20260507182230 | 59 | 239 | 5.2 | 7.0 | 0.00 | 0.06 | 0.06 | 43 | 1004.5 |
| 20260507181728 | 60 | 221 | 7.0 | 8.7 | 0.00 | 0.06 | 0.06 | 42 | 1004.6 |
| 20260507181224 | 62 | 252 | 1.7 | 2.6 | 0.00 | 0.06 | 0.06 | 46 | 1004.6 |
| 20260507180721 | 62 | 250 | 2.6 | 2.6 | 0.00 | 0.06 | 0.06 | 47 | 1004.6 |
| 20260507180218 | 60 | 246 | 6.1 | 7.0 | 0.00 | 0.06 | 0.06 | 51 | 1004.4 |
| 20260507175713 | 60 | 307 | 7.0 | 8.7 | 0.00 | 0.06 | 0.06 | 51 | 1004.5 |
| 20260507175210 | 61 | 292 | 1.7 | 1.7 | 0.00 | 0.06 | 0.06 | 45 | 1004.6 |
| 20260507174708 | 61 | 211 | 5.2 | 6.1 | 0.00 | 0.06 | 0.06 | 46 | 1004.5 |
| 20260507174205 | 61 | 228 | 7.0 | 7.8 | 0.00 | 0.06 | 0.06 | 48 | 1004.6 |
| 20260507173703 | 60 | 214 | 3.5 | 3.5 | 0.00 | 0.06 | 0.06 | 50 | 1004.7 |
| 20260507173159 | 59 | 238 | 3.5 | 5.2 | 0.00 | 0.06 | 0.06 | 53 | 1004.9 |
| 20260507172656 | 60 | 234 | 7.0 | 7.8 | 0.00 | 0.06 | 0.06 | 49 | 1004.9 |
| 20260507172147 | 59 | 287 | 2.6 | 2.6 | 0.00 | 0.06 | 0.06 | 57 | 1004.9 |
| 20260507171641 | 59 | 266 | 1.7 | 2.6 | 0.00 | 0.06 | 0.06 | 57 | 1004.9 |
| 20260507171138 | 59 | 274 | 3.5 | 6.1 | 0.00 | 0.06 | 0.06 | 54 | 1004.8 |
| 20260507170635 | 59 | 272 | 2.6 | 3.5 | 0.00 | 0.06 | 0.06 | 54 | 1004.8 |
| 20260507170133 | 60 | 255 | 5.2 | 8.7 | 0.00 | 0.06 | 0.06 | 54 | 1004.9 |
| 20260507165628 | 61 | 298 | 1.7 | 7.0 | 0.00 | 0.06 | 0.06 | 52 | 1005.0 |
| 20260507165125 | 62 | 220 | 2.6 | 2.6 | 0.00 | 0.06 | 0.06 | 55 | 1005.0 |
| 20260507164620 | 62 | 269 | 2.6 | 3.5 | 0.00 | 0.06 | 0.06 | 55 | 1005.3 |
| 20260507164118 | 60 | 316 | 5.2 | 6.1 | 0.00 | 0.06 | 0.06 | 57 | 1005.2 |
| 20260507163615 | 59 | 224 | 2.6 | 2.6 | 0.00 | 0.06 | 0.06 | 59 | 1005.2 |
| 20260507163114 | 58 | 252 | 1.7 | 2.6 | 0.00 | 0.06 | 0.06 | 58 | 1005.2 |
| 20260507162614 | 59 | 277 | 5.2 | 7.0 | 0.00 | 0.06 | 0.06 | 56 | 1005.2 |
| 20260507162111 | 59 | 270 | 1.7 | 2.6 | 0.00 | 0.06 | 0.06 | 59 | 1005.3 |
| 20260507161607 | 59 | 252 | 2.6 | 2.6 | 0.00 | 0.06 | 0.06 | 60 | 1005.2 |
| 20260507161103 | 59 | 268 | 2.6 | 3.5 | 0.00 | 0.06 | 0.06 | 59 | 1005.3 |
| 20260507160554 | 59 | 283 | 2.6 | 2.6 | 0.00 | 0.06 | 0.06 | 62 | 1005.5 |
| 20260507160051 | 59 | 14 | 3.5 | 5.2 | 0.00 | 0.06 | 0.06 | 60 | 1005.6 |
| 20260507155546 | 62 | 240 | 6.1 | 7.0 | 0.00 | 0.06 | 0.06 | 52 | 1005.4 |
| 20260507155044 | 61 | 217 | 4.3 | 5.2 | 0.00 | 0.06 | 0.06 | 54 | 1005.5 |
| 20260507154540 | 59 | 255 | 0.9 | 0.9 | 0.00 | 0.06 | 0.06 | 59 | 1005.6 |
| 20260507154037 | 58 | 201 | 2.6 | 3.5 | 0.00 | 0.06 | 0.06 | 59 | 1005.5 |
| 20260507153534 | 58 | 272 | 3.5 | 5.2 | 0.00 | 0.06 | 0.06 | 58 | 1005.7 |
| 20260507153030 | 59 | 231 | 1.7 | 1.7 | 0.00 | 0.06 | 0.06 | 58 | 1005.8 |
| 20260507152526 | 59 | 210 | 3.5 | 3.5 | 0.00 | 0.06 | 0.06 | 59 | 1005.8 |
| 20260507152023 | 59 | 252 | 0.0 | 0.0 | 0.00 | 0.06 | 0.06 | 60 | 1005.7 |
| 20260507151519 | 61 | 303 | 0.9 | 0.9 | 0.00 | 0.06 | 0.06 | 58 | 1005.6 |
| 20260507151016 | 61 | 294 | 0.0 | 0.9 | 0.00 | 0.06 | 0.06 | 61 | 1005.9 |
| 20260507150513 | 59 | 30 | 0.9 | 1.7 | 0.00 | 0.06 | 0.06 | 59 | 1005.8 |
| 20260507150010 | 60 | 275 | 2.6 | 3.5 | 0.00 | 0.06 | 0.06 | 60 | 1005.7 |
| 20260507145505 | 59 | 217 | 0.9 | 0.9 | 0.00 | 0.06 | 0.06 | 62 | 1005.7 |
| 20260507145003 | 60 | 304 | 1.7 | 2.6 | 0.00 | 0.06 | 0.06 | 60 | 1005.7 |
| 20260507144459 | 59 | 279 | 0.9 | 0.9 | 0.00 | 0.06 | 0.06 | 60 | 1005.7 |
| 20260507143956 | 58 | 11 | 2.6 | 2.6 | 0.00 | 0.06 | 0.06 | 61 | 1006.0 |
| 20260507143454 | 59 | 296 | 0.0 | 0.0 | 0.00 | 0.06 | 0.06 | 69 | 1006.0 |
| 20260507142950 | 58 | 286 | 1.7 | 2.6 | 0.00 | 0.06 | 0.06 | 65 | 1005.9 |
| 20260507142446 | 58 | 299 | 1.7 | 1.7 | 0.00 | 0.06 | 0.06 | 65 | 1006.1 |
| 20260507141943 | 58 | 239 | 0.9 | 0.9 | 0.00 | 0.06 | 0.06 | 64 | 1006.2 |
| 20260507141439 | 58 | 239 | 2.6 | 2.6 | 0.00 | 0.06 | 0.06 | 65 | 1006.1 |
| 20260507140936 | 57 | 40 | 0.9 | 1.7 | 0.00 | 0.06 | 0.06 | 64 | 1006.3 |
| 20260507140433 | 58 | 290 | 4.3 | 5.2 | 0.00 | 0.06 | 0.06 | 65 | 1006.3 |
| 20260507135931 | 57 | 239 | 1.7 | 2.6 | 0.00 | 0.06 | 0.06 | 66 | 1006.3 |
| 20260507135427 | 56 | 273 | 1.7 | 2.6 | 0.00 | 0.06 | 0.06 | 69 | 1006.4 |
| 20260507134925 | 56 | 242 | 2.6 | 3.5 | 0.00 | 0.06 | 0.06 | 68 | 1006.5 |
| 20260507134421 | 57 | 274 | 0.9 | 0.9 | 0.00 | 0.06 | 0.06 | 69 | 1006.4 |
| 20260507133917 | 57 | 178 | 1.7 | 2.6 | 0.00 | 0.06 | 0.06 | 74 | 1006.5 |
| 20260507133412 | 56 | 264 | 1.7 | 2.6 | 0.00 | 0.06 | 0.06 | 76 | 1006.5 |
| 20260507132906 | 56 | 260 | 0.0 | 0.9 | 0.00 | 0.06 | 0.06 | 76 | 1006.6 |
| 20260507132402 | 56 | 284 | 3.5 | 3.5 | 0.00 | 0.06 | 0.06 | 73 | 1006.5 |
| 20260507131858 | 55 | 260 | 0.0 | 0.9 | 0.00 | 0.06 | 0.06 | 76 | 1006.6 |
| 20260507131355 | 55 | 53 | 1.7 | 1.7 | 0.00 | 0.06 | 0.06 | 76 | 1006.7 |
| 20260507130852 | 55 | 338 | 0.9 | 0.9 | 0.00 | 0.06 | 0.06 | 75 | 1006.5 |
| 20260507130349 | 55 | 289 | 1.7 | 2.6 | 0.00 | 0.06 | 0.06 | 74 | 1006.7 |
| 20260507125848 | 55 | 296 | 2.6 | 3.5 | 0.00 | 0.06 | 0.06 | 74 | 1006.7 |
| 20260507125345 | 54 | 45 | 1.7 | 1.7 | 0.00 | 0.06 | 0.06 | 74 | 1006.8 |
| 20260507124843 | 54 | 58 | 1.7 | 1.7 | 0.00 | 0.06 | 0.06 | 75 | 1006.6 |
| 20260507124338 | 54 | 298 | 0.9 | 0.9 | 0.00 | 0.06 | 0.06 | 75 | 1006.6 |
| 20260507123838 | 54 | 241 | 1.7 | 1.7 | 0.00 | 0.06 | 0.06 | 76 | 1006.5 |
| 20260507123334 | 53 | 312 | 2.6 | 2.6 | 0.00 | 0.06 | 0.06 | 79 | 1006.7 |
| 20260507122831 | 53 | 279 | 0.9 | 0.9 | 0.00 | 0.06 | 0.06 | 77 | 1006.7 |
| 20260507122326 | 53 | 267 | 0.9 | 2.6 | 0.00 | 0.06 | 0.06 | 80 | 1006.6 |
| 20260507121823 | 53 | 281 | 1.7 | 1.7 | 0.00 | 0.06 | 0.06 | 81 | 1006.7 |
| 20260507121318 | 53 | 239 | 3.5 | 3.5 | 0.00 | 0.06 | 0.06 | 79 | 1006.6 |
| 20260507120815 | 52 | 302 | 0.0 | 0.0 | 0.00 | 0.06 | 0.06 | 85 | 1006.7 |
| 20260507120311 | 51 | 250 | 1.7 | 2.6 | 0.00 | 0.06 | 0.06 | 83 | 1006.4 |
| 20260507115807 | 51 | 248 | 1.7 | 1.7 | 0.00 | 0.06 | 0.06 | 85 | 1006.8 |
| 20260507115306 | 51 | 285 | 0.9 | 0.9 | 0.00 | 0.06 | 0.06 | 84 | 1006.7 |
| 20260507114759 | 51 | 233 | 1.7 | 1.7 | 0.00 | 0.06 | 0.06 | 85 | 1006.8 |
| 20260507114256 | 50 | 289 | 0.9 | 0.9 | 0.00 | 0.06 | 0.06 | 87 | 1007.0 |
| 20260507113754 | 50 | 284 | 0.0 | 0.0 | 0.05 | 0.06 | 0.06 | 86 | 1006.8 |
| 20260507113250 | 50 | 349 | 0.0 | 0.0 | 0.05 | 0.06 | 0.06 | 88 | 1006.8 |
| 20260507112748 | 48 | 309 | 0.0 | 0.0 | 0.00 | 0.05 | 0.05 | 92 | 1006.4 |
| 20260507112245 | 47 | 283 | 0.0 | 0.0 | 0.00 | 0.05 | 0.05 | 93 | 1006.8 |
| 20260507111743 | 47 | 270 | 0.0 | 0.0 | 0.00 | 0.05 | 0.05 | 93 | 1006.7 |
| 20260507111239 | 48 | 277 | 0.0 | 0.0 | 0.00 | 0.05 | 0.05 | 93 | 1007.0 |
| 20260507110735 | 48 | 304 | 0.0 | 0.0 | 0.00 | 0.05 | 0.05 | 95 | 1006.9 |
| 20260507110232 | 47 | 277 | 0.0 | 0.0 | 0.00 | 0.05 | 0.05 | 95 | 1007.1 |
| 20260507105729 | 47 | 261 | 0.0 | 0.0 | 0.00 | 0.05 | 0.05 | 95 | 1007.1 |
| 20260507105225 | 47 | 320 | 0.0 | 0.0 | 0.00 | 0.05 | 0.05 | 96 | 1006.6 |
| 20260507104722 | 47 | 289 | 0.0 | 0.0 | 0.00 | 0.05 | 0.05 | 97 | 1006.8 |
| 20260507104219 | 47 | 283 | 0.0 | 0.0 | 0.00 | 0.05 | 0.05 | 97 | 1007.1 |
| 20260507103714 | 46 | 270 | 0.0 | 0.0 | 0.00 | 0.05 | 0.05 | 97 | 1007.2 |
| 20260507103205 | 46 | 259 | 0.0 | 0.0 | 0.00 | 0.05 | 0.05 | 98 | 1007.1 |
| 20260507102702 | 46 | 276 | 0.0 | 0.0 | 0.00 | 0.05 | 0.05 | 98 | 1007.0 |
| 20260507102159 | 46 | 291 | 0.0 | 0.0 | 0.00 | 0.05 | 0.05 | 98 | 1006.7 |
| 20260507101654 | 46 | 252 | 0.0 | 0.0 | 0.00 | 0.05 | 0.05 | 98 | 1007.4 |
| 20260507101150 | 46 | 302 | 0.0 | 0.0 | 0.00 | 0.05 | 0.05 | 97 | 1006.5 |
| 20260507100648 | 46 | 279 | 0.0 | 0.9 | 0.00 | 0.05 | 0.05 | 97 | 1006.8 |
| 20260507100146 | 46 | 275 | 0.0 | 0.0 | 0.00 | 0.05 | 0.05 | 97 | 1007.1 |
| 20260507095643 | 46 | 274 | 0.0 | 0.0 | 0.00 | 0.05 | 0.05 | 96 | 1007.0 |
| 20260507095140 | 46 | 262 | 0.0 | 0.0 | 0.00 | 0.05 | 0.05 | 96 | 1007.0 |
| 20260507094636 | 46 | 289 | 1.7 | 1.7 | 0.00 | 0.05 | 0.05 | 96 | 1006.7 |
| 20260507094133 | 46 | 294 | 0.9 | 0.9 | 0.00 | 0.05 | 0.05 | 95 | 1006.5 |
| 20260507093630 | 46 | 286 | 0.9 | 0.9 | 0.00 | 0.05 | 0.05 | 96 | 1006.4 |
| 20260507093129 | 46 | 300 | 1.7 | 2.6 | 0.00 | 0.05 | 0.05 | 95 | 1006.3 |
| 20260507092626 | 47 | 272 | 0.0 | 0.0 | 0.00 | 0.05 | 0.05 | 95 | 1006.6 |
| 20260507092122 | 47 | 292 | 1.7 | 2.6 | 0.00 | 0.05 | 0.05 | 94 | 1006.0 |
| 20260507091619 | 47 | 313 | 0.0 | 0.9 | 0.00 | 0.05 | 0.05 | 94 | 1006.0 |
| 20260507091114 | 47 | 214 | 0.0 | 0.0 | 0.00 | 0.05 | 0.05 | 94 | 1006.2 |
| 20260507090610 | 47 | 269 | 0.9 | 1.7 | 0.00 | 0.05 | 0.05 | 94 | 1006.2 |
| 20260507090108 | 47 | 313 | 0.0 | 0.0 | 0.00 | 0.05 | 0.05 | 94 | 1006.3 |
| 20260507085604 | 47 | 286 | 0.0 | 0.0 | 0.00 | 0.05 | 0.05 | 94 | 1006.4 |
| 20260507085101 | 47 | 290 | 0.9 | 1.7 | 0.00 | 0.05 | 0.05 | 94 | 1006.3 |
| 20260507084558 | 48 | 289 | 0.0 | 0.0 | 0.00 | 0.05 | 0.05 | 94 | 1006.4 |
| 20260507084055 | 48 | 41 | 0.9 | 1.7 | 0.00 | 0.05 | 0.05 | 94 | 1006.4 |
| 20260507083551 | 48 | 272 | 0.9 | 0.9 | 0.00 | 0.05 | 0.05 | 95 | 1006.9 |
| 20260507083048 | 48 | 291 | 0.0 | 0.9 | 0.00 | 0.05 | 0.05 | 96 | 1006.6 |
| 20260507082544 | 48 | 261 | 0.0 | 0.0 | 0.00 | 0.05 | 0.05 | 96 | 1006.6 |
| 20260507082041 | 48 | 293 | 0.9 | 1.7 | 0.00 | 0.05 | 0.05 | 97 | 1006.2 |
| 20260507081537 | 48 | 286 | 0.0 | 0.9 | 0.00 | 0.05 | 0.05 | 96 | 1006.0 |
| 20260507081034 | 48 | 296 | 0.9 | 1.7 | 0.00 | 0.05 | 0.05 | 97 | 1005.8 |
| 20260507080530 | 48 | 289 | 0.9 | 1.7 | 0.00 | 0.05 | 0.05 | 97 | 1006.1 |
| 20260507080027 | 48 | 300 | 0.0 | 0.9 | 0.00 | 0.05 | 0.05 | 97 | 1006.7 |
| 20260507075522 | 48 | 28 | 1.7 | 1.7 | 0.00 | 0.05 | 0.05 | 98 | 1006.4 |
| 20260507075019 | 48 | 302 | 0.0 | 0.0 | 0.00 | 0.05 | 0.05 | 98 | 1006.0 |
| 20260507074515 | 48 | 301 | 0.0 | 0.0 | 0.00 | 0.05 | 0.05 | 98 | 1006.1 |
| 20260507074014 | 48 | 324 | 0.0 | 0.9 | 0.00 | 0.05 | 0.05 | 98 | 1005.8 |
| 20260507073510 | 48 | 17 | 1.7 | 1.7 | 0.00 | 0.05 | 0.05 | 98 | 1005.7 |
| 20260507073006 | 48 | 28 | 1.7 | 1.7 | 0.00 | 0.05 | 0.05 | 98 | 1006.0 |
| 20260507072504 | 48 | 8 | 0.0 | 0.9 | 0.00 | 0.05 | 0.05 | 98 | 1005.8 |
| 20260507072001 | 48 | 340 | 0.9 | 0.9 | 0.00 | 0.05 | 0.05 | 97 | 1005.5 |
| 20260507071458 | 48 | 309 | 0.0 | 0.0 | 0.00 | 0.05 | 0.05 | 97 | 1005.8 |
| 20260507070955 | 48 | 11 | 2.6 | 3.5 | 0.00 | 0.05 | 0.05 | 97 | 1005.9 |
| 20260507070452 | 48 | 320 | 1.7 | 1.7 | 0.00 | 0.05 | 0.05 | 97 | 1005.7 |
| 20260507065949 | 49 | 23 | 1.7 | 2.6 | 0.00 | 0.05 | 0.05 | 96 | 1005.8 |
| 20260507065445 | 49 | 325 | 1.7 | 2.6 | 0.00 | 0.05 | 0.05 | 97 | 1005.7 |
| 20260507064943 | 49 | 11 | 1.7 | 1.7 | 0.00 | 0.05 | 0.05 | 98 | 1005.7 |
| 20260507064441 | 49 | 313 | 0.0 | 0.9 | 0.00 | 0.05 | 0.05 | 99 | 1005.5 |
| 20260507063938 | 49 | 316 | 1.7 | 1.7 | 0.00 | 0.05 | 0.05 | 99 | 1005.4 |
| 20260507063435 | 49 | 289 | 0.9 | 0.9 | 0.00 | 0.05 | 0.05 | 99 | 1005.4 |
| 20260507062932 | 49 | 276 | 0.0 | 0.9 | 0.00 | 0.05 | 0.05 | 99 | 1005.4 |
| 20260507062429 | 49 | 298 | 0.0 | 0.0 | 0.00 | 0.05 | 0.05 | 99 | 1005.1 |
| 20260507061926 | 49 | 32 | 0.9 | 0.9 | 0.00 | 0.05 | 0.05 | 99 | 1005.2 |
| 20260507061424 | 49 | 283 | 0.9 | 1.7 | 0.00 | 0.05 | 0.05 | 99 | 1005.3 |
| 20260507060923 | 49 | 270 | 0.9 | 0.9 | 0.00 | 0.05 | 0.05 | 99 | 1005.2 |
| 20260507060419 | 49 | 344 | 0.0 | 0.0 | 0.00 | 0.05 | 0.05 | 99 | 1005.1 |
| 20260507055916 | 50 | 324 | 0.9 | 0.9 | 0.00 | 0.05 | 0.05 | 99 | 1005.2 |
| 20260507055411 | 50 | 307 | 0.9 | 1.7 | 0.00 | 0.05 | 0.05 | 99 | 1005.1 |
| 20260507054908 | 50 | 307 | 0.9 | 0.9 | 0.00 | 0.05 | 0.05 | 99 | 1005.1 |
| 20260507054404 | 50 | 282 | 0.0 | 0.9 | 0.00 | 0.05 | 0.05 | 99 | 1005.3 |
| 20260507053901 | 50 | 292 | 0.0 | 0.0 | 0.00 | 0.05 | 0.05 | 99 | 1005.3 |
| 20260507053359 | 50 | 282 | 0.9 | 1.7 | 0.00 | 0.05 | 0.05 | 99 | 1005.2 |
| 20260507052858 | 51 | 346 | 0.0 | 0.0 | 0.00 | 0.05 | 0.05 | 99 | 1005.0 |
| 20260507052354 | 51 | 278 | 0.0 | 0.0 | 0.00 | 0.05 | 0.05 | 99 | 1005.2 |
| 20260507051852 | 51 | 42 | 0.0 | 0.0 | 0.00 | 0.05 | 0.05 | 99 | 1005.2 |
| 20260507051349 | 51 | 287 | 0.9 | 0.9 | 0.00 | 0.05 | 0.05 | 99 | 1005.2 |
| 20260507050845 | 51 | 40 | 0.0 | 0.0 | 0.00 | 0.05 | 0.05 | 99 | 1004.9 |
| 20260507050342 | 51 | 277 | 0.0 | 0.0 | 0.00 | 0.05 | 0.05 | 99 | 1004.8 |
| 20260507045833 | 51 | 305 | 1.7 | 1.7 | 0.00 | 0.05 | 0.05 | 99 | 1004.8 |
| 20260507045330 | 53 | 28 | 2.6 | 3.5 | 0.00 | 0.05 | 0.05 | 99 | 1004.9 |
| 20260507044827 | 54 | 54 | 2.6 | 2.6 | 0.00 | 0.05 | 0.05 | 99 | 1004.6 |
| 20260507044324 | 54 | 326 | 0.9 | 0.9 | 0.00 | 0.05 | 0.05 | 99 | 1004.5 |
| 20260507043820 | 55 | 341 | 3.5 | 6.1 | 0.00 | 0.05 | 0.05 | 99 | 1004.4 |
| 20260507043316 | 56 | 302 | 1.7 | 1.7 | 0.00 | 0.05 | 0.05 | 99 | 1004.6 |
| 20260507042813 | 56 | 247 | 0.9 | 0.9 | 0.00 | 0.05 | 0.05 | 99 | 1004.4 |
| 20260507042309 | 56 | 272 | 0.9 | 0.9 | 0.07 | 0.05 | 0.05 | 99 | 1004.5 |
| 20260507041806 | 56 | 269 | 0.9 | 1.7 | 0.12 | 0.05 | 0.05 | 99 | 1004.2 |
| 20260507041302 | 56 | 269 | 0.9 | 1.7 | 0.19 | 0.04 | 0.04 | 99 | 1004.2 |
| 20260507040800 | 56 | 282 | 0.0 | 0.9 | 0.26 | 0.03 | 0.03 | 99 | 1004.2 |
| 20260507040255 | 56 | 283 | 0.0 | 0.0 | 0.17 | 0.01 | 0.01 | 99 | 1004.3 |
| 20260507035751 | 55 | 255 | 0.0 | 0.0 | 0.05 | 0.36 | 0.36 | 99 | 1004.4 |
| 20260507035247 | 55 | 282 | 0.0 | 0.0 | 0.05 | 0.36 | 0.36 | 99 | 1004.4 |
| 20260507034745 | 55 | 285 | 0.0 | 0.0 | 0.00 | 0.35 | 0.35 | 99 | 1004.4 |
| 20260507034241 | 55 | 279 | 0.0 | 0.0 | 0.00 | 0.35 | 0.35 | 99 | 1004.0 |
| 20260507033740 | 55 | 279 | 0.0 | 0.0 | 0.00 | 0.35 | 0.35 | 99 | 1004.0 |
| 20260507033237 | 55 | 292 | 0.0 | 0.0 | 0.00 | 0.35 | 0.35 | 99 | 1003.9 |
| 20260507032734 | 55 | 298 | 0.0 | 0.0 | 0.00 | 0.35 | 0.35 | 99 | 1003.9 |
| 20260507032230 | 55 | 288 | 0.0 | 0.0 | 0.00 | 0.35 | 0.35 | 99 | 1003.8 |
| 20260507031727 | 55 | 306 | 0.0 | 0.0 | 0.00 | 0.35 | 0.35 | 99 | 1003.7 |
| 20260507031223 | 55 | 294 | 0.0 | 0.0 | 0.00 | 0.35 | 0.35 | 99 | 1003.7 |
| 20260507030720 | 55 | 287 | 0.0 | 0.0 | 0.00 | 0.35 | 0.35 | 99 | 1003.7 |
| 20260507030218 | 55 | 279 | 0.0 | 0.0 | 0.00 | 0.35 | 0.35 | 99 | 1004.0 |
| 20260507025715 | 55 | 274 | 0.0 | 0.0 | 0.00 | 0.35 | 0.35 | 99 | 1004.0 |
| 20260507025212 | 55 | 232 | 1.7 | 1.7 | 0.07 | 0.35 | 0.35 | 99 | 1003.8 |
| 20260507024710 | 55 | 284 | 0.0 | 0.0 | 0.07 | 0.35 | 0.35 | 99 | 1003.9 |
| 20260507024207 | 55 | 303 | 0.0 | 0.0 | 0.00 | 0.34 | 0.34 | 99 | 1004.0 |
| 20260507023702 | 55 | 260 | 0.0 | 0.0 | 0.00 | 0.34 | 0.34 | 99 | 1003.8 |
| 20260507023200 | 55 | 278 | 0.0 | 0.0 | 0.00 | 0.34 | 0.34 | 99 | 1004.1 |
| 20260507022657 | 55 | 296 | 0.0 | 0.9 | 0.00 | 0.34 | 0.34 | 99 | 1004.2 |
| 20260507022152 | 55 | 233 | 0.9 | 0.9 | 0.00 | 0.34 | 0.34 | 99 | 1004.0 |
| 20260507021649 | 55 | 213 | 0.9 | 1.7 | 0.00 | 0.34 | 0.34 | 99 | 1004.2 |
| 20260507021144 | 55 | 262 | 0.9 | 0.9 | 0.00 | 0.34 | 0.34 | 99 | 1004.0 |
| 20260507020643 | 55 | 262 | 0.0 | 0.0 | 0.00 | 0.34 | 0.34 | 99 | 1004.2 |
| 20260507020139 | 55 | 271 | 0.0 | 0.9 | 0.00 | 0.34 | 0.34 | 99 | 1004.2 |
| 20260507015637 | 55 | 250 | 0.0 | 0.9 | 0.00 | 0.34 | 0.34 | 99 | 1004.2 |
| 20260507015134 | 55 | 248 | 0.9 | 0.9 | 0.00 | 0.34 | 0.34 | 99 | 1004.3 |
| 20260507014631 | 55 | 223 | 0.9 | 1.7 | 0.00 | 0.34 | 0.34 | 99 | 1004.1 |
| 20260507014127 | 55 | 235 | 0.9 | 0.9 | 0.00 | 0.34 | 0.34 | 99 | 1004.5 |
| 20260507013624 | 55 | 158 | 1.7 | 1.7 | 0.00 | 0.34 | 0.34 | 99 | 1004.4 |
| 20260507013121 | 55 | 211 | 1.7 | 2.6 | 0.00 | 0.34 | 0.34 | 99 | 1004.6 |
| 20260507012618 | 55 | 232 | 1.7 | 1.7 | 0.00 | 0.34 | 0.34 | 99 | 1004.5 |
| 20260507012113 | 55 | 225 | 0.9 | 0.9 | 0.00 | 0.34 | 0.34 | 99 | 1004.4 |
| 20260507011612 | 55 | 269 | 0.9 | 0.9 | 0.00 | 0.34 | 0.34 | 99 | 1004.5 |
| 20260507011108 | 55 | 223 | 0.9 | 1.7 | 0.05 | 0.34 | 0.34 | 99 | 1004.6 |
| 20260507010603 | 55 | 270 | 0.9 | 0.9 | 0.05 | 0.34 | 0.34 | 99 | 1004.6 |
| 20260507010059 | 55 | 207 | 3.5 | 5.2 | 0.00 | 0.33 | 0.33 | 99 | 1004.7 |
| 20260507005556 | 55 | 130 | 0.9 | 1.7 | 0.00 | 0.33 | 0.33 | 99 | 1004.5 |
| 20260507005052 | 55 | 261 | 0.0 | 0.0 | 0.00 | 0.33 | 0.33 | 99 | 1004.8 |